Weather History for KSNY - August, 2014

Change the Weather History Date:

Monday, August 25, 2014

  Actual Average Record
Temperature  
Mean Temperature 66 °F 72 °F  
Max Temperature 80 °F 87 °F 101 °F (2011)
Min Temperature 52 °F 57 °F 39 °F (1964)
Degree Days  
Heating Degree Days 0 0  
Month to date heating degree days 0 0  
Since 1 June heating degree days 64 62  
Since 1 July heating degree days 9 3  
Cooling Degree Days 1 7  
Month to date cooling degree days 194 225  
Year to date cooling degree days 537 703  
Since 1 June cooling degree days 521 681  
Growing Degree Days 16 (Base 50)    
Moisture  
Dew Point 49 °F    
Average Humidity 56    
Maximum Humidity 73    
Minimum Humidity 39    
Precipitation  
Precipitation 0.00 in 0.07 in 0.98 in (2005)
Month to date precipitation 2.71 1.86  
Year to date precipitation 11.48 14.76  
Sea Level Pressure  
Sea Level Pressure 30.02 in    
Wind  
Wind Speed 10 mph (NE)    
Max Wind Speed 18 mph    
Max Gust Speed 22 mph    
Visibility 10 miles    
Events      
T = Trace of Precipitation, MM = Missing Value Source: NWS Daily Summary

Daily Weather History Graph

Daily Weather History Graph

Search for Another Location

Airport or City:

Trip Planner

Search our weather history database for the weather conditions in past years. The results will help you decide how hot, cold, wet, or windy it might be!

Date:

Astronomy

Aug. 25, 2014 Rise Set
Actual Time 6:11 AM MDT 7:35 PM MDT
Civil Twilight 5:42 AM MDT 8:04 PM MDT
Nautical Twilight 5:08 AM MDT 8:38 PM MDT
Astronomical Twilight 4:31 AM MDT 9:15 PM MDT
Moon 6:19 AM MDT (8/25) 7:26 PM MDT (8/25)
Length of Visible Light 14h 21m
Length of Day
13h 24m
New Moon, 0% of the Moon is Illuminated
Aug 25
New Moon
Sep 2
First Quarter
Sep 8
Full
Sep 15
Last Quarter
Sep 24
New

Hourly Weather History & Observations

Time (MDT) Temp. Dew Point Humidity Pressure Visibility Wind Dir Wind Speed Gust Speed Precip Events Conditions
12:53 AM 61.0 °F 46.9 °F 60% 29.92 in 10.0 mi NNE 9.2 mph - N/A   Clear
1:53 AM 59.0 °F 46.9 °F 64% 29.92 in 10.0 mi North 9.2 mph - N/A   Clear
3:53 AM 57.0 °F 43.0 °F 59% 29.99 in 10.0 mi North 13.8 mph 18.4 mph N/A   Mostly Cloudy
4:53 AM 55.0 °F 43.0 °F 64% 29.97 in 10.0 mi North 15.0 mph - N/A   Clear
6:53 AM 53.1 °F 42.1 °F 66% 30.02 in 10.0 mi North 12.7 mph - N/A   Clear
8:53 AM 59.0 °F 43.0 °F 55% 30.11 in 10.0 mi NNW 16.1 mph - N/A   Scattered Clouds
9:53 AM 59.0 °F 44.1 °F 58% 30.12 in 10.0 mi NNE 10.4 mph - N/A   Overcast
10:53 AM 66.0 °F 48.0 °F 52% 30.07 in 10.0 mi ENE 4.6 mph - N/A   Clear
11:53 AM 72.0 °F 50.0 °F 46% 30.05 in 10.0 mi NNE 5.8 mph - N/A   Clear
12:53 PM 73.9 °F 51.1 °F 45% 30.05 in 10.0 mi NE 4.6 mph - N/A   Clear
1:53 PM 77.0 °F 51.1 °F 40% 30.04 in 10.0 mi North 5.8 mph - N/A   Clear
2:53 PM 77.0 °F 50.0 °F 39% 30.02 in 10.0 mi ENE 3.5 mph - N/A   Clear
3:53 PM 79.0 °F 52.0 °F 39% 30.01 in 10.0 mi East 5.8 mph - N/A   Clear
4:53 PM 79.0 °F 52.0 °F 39% 30.00 in 10.0 mi East 12.7 mph - N/A   Clear
5:53 PM 75.9 °F 52.0 °F 43% 30.00 in 10.0 mi East 11.5 mph - N/A   Clear
6:53 PM 73.0 °F 53.1 °F 49% 30.04 in 10.0 mi East 8.1 mph - N/A   Clear
9:53 PM 66.9 °F 57.0 °F 70% 30.05 in 10.0 mi ESE 9.2 mph - N/A   Clear
10:53 PM 66.0 °F 57.0 °F 73% 30.05 in 10.0 mi SE 15.0 mph - N/A   Clear
11:53 PM 66.0 °F 57.9 °F 75% 30.04 in 10.0 mi SE 16.1 mph 21.9 mph N/A   Clear